Wind_Speed
13 13 13 14 14 15 15 16 16 17 18 18 18 19 19 19 19 19 19 19 19 19 19 19 19 19 19 19 19 19 19 20 20 20 20 20 20 21 21 22 21 21 21 22 22 24 24 24 23 23 26 29 32 32 29 30 35 37 38 37 34 31 30 31 32 32 33 35 38 41 44 48 50 49
14 14 14 13 13 14 14 14 15 16 16 16 16 17 17 17 17 17 17 17 17 17 17 18 18 18 18 19 19 19 19 19 20 20 20 20 21 21 21 21 21 21 21 22 23 24 24 23 23 24 27 29 31 32 28 28 33 37 38 38 36 31 28 29 30 30 31 33 36 40 43 47 49 47
14 15 15 15 14 14 14 14 15 15 15 16 16 16 16 16 16 16 16 16 16 17 17 17 17 17 17 18 18 18 18 18 19 20 20 21 22 22 22 21 21 21 22 23 24 25 24 22 22 24 27 28 30 30 26 26 31 36 38 39 37 32 29 28 29 30 30 33 36 39 42 46 49 45
15 15 15 16 15 15 15 15 15 15 16 16 16 17 17 17 17 17 17 17 17 17 18 18 17 17 18 18 18 18 18 18 18 19 20 21 22 22 22 22 22 23 23 24 25 26 24 22 22 24 27 27 28 29 26 25 30 34 37 38 37 34 30 28 28 30 31 33 36 39 41 45 48 46
15 15 16 16 16 16 16 16 16 16 17 17 17 18 18 18 18 19 19 19 19 19 20 19 19 19 19 19 19 19 20 20 20 20 20 21 21 22 23 23 24 25 25 25 25 25 24 23 23 25 26 26 28 28 25 25 29 33 36 38 37 35 31 28 28 29 31 33 36 39 40 44 47 47
15 15 16 16 16 16 17 17 17 17 17 17 18 18 19 19 20 20 20 21 21 22 22 22 22 21 21 21 21 21 21 22 23 22 22 21 22 23 24 25 25 25 26 26 25 25 24 24 25 26 26 26 27 28 26 26 29 32 35 37 37 35 31 28 27 28 29 31 34 36 38 42 45 46
15 15 16 16 17 17 17 17 18 18 18 18 18 19 19 20 21 21 21 22 22 23 24 24 25 25 24 23 23 23 23 24 25 25 24 23 24 24 25 25 25 25 26 26 26 26 26 25 26 26 25 25 27 28 28 28 29 30 34 37 37 35 31 27 27 28 28 29 31 33 36 40 43 45
15 15 16 16 17 17 17 18 18 19 19 19 19 20 20 20 21 21 22 22 23 24 24 26 26 27 27 26 26 26 25 26 26 27 27 27 26 26 26 26 27 27 27 28 27 27 27 27 27 26 24 25 27 29 29 29 29 30 33 37 37 36 32 27 25 27 28 27 29 30 33 37 40 43
15 15 16 16 17 18 18 18 19 19 20 20 20 21 21 21 21 21 22 22 23 24 24 25 26 27 28 28 28 28 28 28 28 29 29 29 28 27 27 27 28 28 29 30 30 28 28 28 28 26 24 25 28 29 29 29 29 29 32 36 37 37 33 28 25 26 26 26 27 29 32 35 37 40
16 16 16 17 17 18 19 19 20 20 20 21 21 22 22 22 22 22 22 23 23 23 24 24 25 27 27 28 29 29 29 29 29 29 30 30 29 28 27 27 27 28 29 30 31 30 29 29 28 27 25 25 27 28 28 29 29 29 31 34 36 37 34 29 25 25 26 25 25 27 30 32 34 36
16 16 17 17 18 18 19 20 20 21 22 22 22 23 23 23 24 24 24 24 24 24 24 25 25 26 27 28 29 29 30 30 30 30 30 30 30 30 29 27 27 28 29 29 30 30 29 29 28 27 26 26 27 28 28 29 29 29 30 33 35 36 34 30 26 24 24 24 25 27 29 30 31 34
16 17 17 18 18 19 20 20 21 22 23 23 24 24 24 25 25 25 25 25 25 25 25 25 26 27 28 29 30 30 30 30 30 31 31 31 31 31 31 30 29 29 29 28 28 28 28 28 27 26 26 26 27 28 28 28 28 28 29 31 33 35 34 30 25 23 22 23 25 27 30 30 30 32
17 18 18 18 19 19 20 21 22 23 23 24 25 25 26 26 26 26 26 27 27 27 27 27 27 27 28 29 30 31 31 31 30 31 31 31 31 31 32 32 30 29 29 28 26 26 25 25 25 25 26 26 27 27 28 27 27 28 28 30 32 34 34 30 25 22 22 23 26 28 30 30 29 31
18 19 19 20 20 21 21 22 23 23 24 24 25 26 26 27 27 27 27 27 27 27 27 28 28 28 28 28 29 31 31 31 31 31 31 31 31 31 33 33 32 30 29 28 25 24 23 24 24 24 25 26 26 26 27 27 27 28 29 30 31 33 34 31 26 23 22 25 27 28 29 29 29 31
19 20 20 21 22 22 22 23 23 23 23 23 24 25 26 26 26 27 27 27 26 26 26 27 27 28 28 28 29 30 31 32 32 32 32 32 32 33 33 34 33 30 29 28 26 24 24 24 23 23 24 25 26 26 26 26 27 28 30 30 32 33 33 31 28 24 23 25 27 28 29 29 30 32
19 19 20 21 22 23 23 24 24 24 24 23 23 24 25 26 26 26 26 27 27 26 26 26 27 28 28 28 30 31 31 32 32 32 33 33 33 34 34 34 34 31 29 28 27 26 26 25 25 24 24 26 27 28 28 28 28 30 31 31 32 33 33 31 29 26 25 25 27 29 30 30 31 32
19 20 20 21 22 23 24 25 25 26 26 26 26 25 25 26 26 26 27 27 27 27 26 26 27 28 29 29 30 32 32 32 33 33 34 34 34 35 35 34 33 31 30 29 28 28 27 26 25 25 25 26 28 30 30 30 30 32 33 33 32 33 33 32 30 28 25 24 27 30 31 31 32 33
19 20 21 21 22 23 25 25 26 27 28 28 28 27 26 26 26 27 26 27 27 27 27 27 27 28 29 30 31 33 33 33 34 34 34 34 35 36 35 34 33 32 31 32 31 31 29 27 26 25 25 26 28 30 31 31 32 33 33 33 33 33 34 33 31 28 25 24 27 30 32 32 33 34
20 20 21 21 22 23 24 25 26 27 28 28 28 27 26 27 27 27 26 27 28 29 28 28 27 28 29 30 31 32 33 33 33 34 34 35 36 36 36 35 34 34 34 35 34 34 33 31 29 28 28 28 30 31 31 30 31 31 32 33 34 35 35 34 31 27 25 25 28 31 33 34 35 35
20 20 21 22 22 23 23 24 25 26 27 27 27 27 26 26 27 26 26 28 30 30 30 29 29 28 29 29 29 30 31 32 33 34 35 35 36 36 36 36 37 37 37 36 36 36 35 34 33 33 33 34 34 33 30 28 27 28 30 32 34 36 36 33 29 27 26 26 30 33 35 36 37 36
20 20 21 21 22 22 23 23 25 26 26 27 27 27 27 28 27 26 26 28 31 31 31 31 30 29 29 29 29 30 32 33 35 35 35 35 36 37 37 37 38 38 37 37 37 38 37 36 36 37 37 37 35 31 27 24 23 26 30 33 34 35 35 33 29 27 26 27 30 35 37 37 38 37
20 20 21 22 22 23 23 24 25 27 27 27 26 26 28 29 27 25 26 28 30 31 31 31 31 30 30 31 32 33 34 35 36 36 36 35 36 37 37 37 38 37 37 38 39 39 39 38 38 37 36 35 32 26 23 21 22 27 33 34 33 33 34 32 30 27 27 28 31 35 38 38 38 37
21 21 22 23 24 24 23 23 25 27 27 27 27 27 29 29 26 25 26 28 29 30 30 31 31 32 32 33 34 35 35 36 36 36 36 36 36 36 36 37 38 38 38 39 39 40 39 39 39 37 34 31 28 25 23 23 27 32 36 35 33 32 32 32 30 28 28 28 31 34 37 38 38 38
22 22 23 25 26 26 25 25 25 26 27 28 28 28 29 28 26 25 27 28 28 29 29 30 31 32 32 33 34 35 35 36 36 37 37 36 35 35 36 37 38 39 40 41 41 40 40 40 39 36 32 29 28 28 28 30 33 38 38 36 34 32 32 31 30 29 28 29 30 33 36 38 39 40
23 23 24 26 28 28 28 28 27 27 27 28 29 28 28 27 26 26 27 27 27 27 28 29 30 31 32 33 34 34 34 35 36 36 36 35 34 34 35 36 38 40 42 43 43 42 41 39 36 33 30 29 30 32 33 35 37 39 38 37 36 33 32 32 31 29 29 30 31 33 35 37 39 42
25 24 25 27 29 30 31 31 30 29 28 29 29 28 27 26 25 26 26 26 26 26 28 29 29 30 31 31 32 32 32 33 33 34 34 34 34 34 35 36 39 41 43 43 44 44 41 37 32 30 30 30 31 34 36 37 38 38 38 39 37 33 32 32 32 31 31 32 33 34 35 37 40 42
27 26 26 28 30 32 33 33 32 31 31 31 30 28 26 26 26 26 25 24 24 25 27 27 28 29 29 30 30 31 31 31 31 32 32 33 33 34 36 37 39 41 42 42 42 41 38 34 31 32 32 33 34 36 38 39 40 39 39 39 37 33 32 33 34 33 33 33 34 35 37 39 42 43
29 28 27 29 31 33 34 33 33 33 33 32 31 29 27 26 26 25 24 23 23 24 25 26 27 27 28 29 30 30 30 31 31 31 32 32 33 35 36 38 39 40 41 41 40 39 36 33 33 35 36 36 37 38 40 41 41 40 40 39 36 33 33 34 34 35 35 35 36 37 39 41 43 45
30 29 29 30 32 34 34 33 33 33 34 33 32 30 28 27 26 25 24 23 23 23 24 25 26 26 27 27 28 29 30 31 32 32 32 33 34 36 37 38 39 39 40 40 40 40 39 37 38 39 40 40 40 40 41 42 41 42 42 39 34 32 32 34 34 35 35 36 38 39 41 43 44 46
30 31 31 31 33 34 34 33 33 35 35 34 33 31 29 27 26 25 24 24 24 23 22 22 23 25 26 28 28 29 29 30 31 32 33 35 36 37 39 39 39 38 38 39 40 41 42 42 42 43 43 42 42 43 43 43 44 44 42 37 32 30 31 33 33 34 35 37 39 40 42 43 45 46
31 33 33 33 34 35 35 34 35 37 38 36 35 33 30 28 27 26 26 25 24 22 22 22 24 28 31 32 31 31 31 32 34 36 37 38 38 38 38 38 37 37 37 38 39 40 41 42 43 43 43 44 44 45 46 46 45 43 39 35 32 31 32 33 33 34 35 37 38 40 41 43 44 45
33 36 36 35 35 36 36 36 37 39 39 37 35 33 31 29 28 27 26 26 25 25 27 28 31 34 36 35 34 34 35 36 38 39 39 39 39 38 37 35 33 34 34 36 38 40 41 41 41 42 43 43 45 47 47 46 44 40 36 34 33 33 34 35 35 35 36 37 37 38 40 42 43 43
34 38 39 38 36 37 38 38 39 40 40 37 35 34 32 30 28 27 28 30 30 31 32 33 35 37 38 36 35 36 37 37 37 38 39 40 40 39 38 37 36 36 37 39 42 44 43 41 40 40 41 43 45 46 46 44 41 38 36 35 35 36 37 38 38 39 39 38 38 38 40 42 43 43
36 40 42 40 38 38 39 39 40 40 40 38 37 35 33 31 30 30 33 34 33 33 35 37 37 37 38 38 38 38 38 38 38 39 40 41 41 39 40 41 43 44 45 46 47 48 45 42 40 40 41 42 43 44 42 40 38 37 37 37 38 39 40 41 42 42 40 39 39 41 43 45 46 46
38 42 44 42 39 39 40 41 40 40 40 39 39 38 37 37 37 37 37 36 34 35 37 38 39 38 39 40 42 41 40 40 40 39 40 41 42 42 42 42 43 45 47 48 49 48 46 43 41 41 41 41 41 41 41 40 39 39 39 41 42 43 45 46 45 43 41 41 42 44 46 48 49 49
40 43 44 43 41 40 41 41 39 39 38 38 39 40 41 42 42 40 38 37 36 38 39 39 40 39 41 45 47 46 45 44 44 43 42 42 42 43 43 43 43 44 46 47 48 47 45 43 41 40 40 40 41 41 42 42 42 42 43 44 46 48 49 49 48 45 43 43 45 48 50 52 53 53
42 43 44 45 42 39 39 40 40 38 38 39 41 43 45 45 43 40 38 37 38 39 39 40 41 41 43 47 49 48 49 51 50 47 46 46 46 46 46 45 44 44 45 47 47 46 44 41 39 39 40 42 43 44 45 45 45 46 47 49 51 51 51 51 49 46 45 46 49 52 54 55 57 57
43 43 44 44 41 38 39 41 41 40 39 40 43 46 46 44 41 39 37 37 38 38 39 40 41 41 44 49 51 51 51 53 51 49 48 48 48 48 48 46 45 45 46 47 46 44 42 41 42 44 46 47 48 49 49 50 50 51 53 54 54 54 53 52 49 47 48 50 53 56 58 60 61 60
44 44 43 39 37 39 42 41 40 43 44 42 43 46 45 42 40 39 40 39 39 39 39 41 43 44 47 52 55 54 53 54 53 50 49 49 49 48 47 46 45 45 44 44 44 45 46 47 49 50 51 50 50 50 51 52 53 54 56 57 57 56 55 53 51 50 52 54 57 59 61 62 61 60
44 45 41 34 34 41 43 38 38 43 46 44 42 42 41 40 39 39 39 40 40 41 43 44 46 50 54 56 56 56 56 57 57 55 53 51 51 51 49 46 44 44 45 47 49 51 53 54 53 53 52 52 52 52 53 54 54 55 55 56 57 57 56 55 54 55 57 59 61 63 63 63 63 64
44 43 37 32 36 43 41 34 35 41 42 39 38 38 39 41 41 39 40 42 44 45 47 48 51 55 56 54 53 54 56 58 59 58 55 53 53 52 51 49 48 49 51 53 55 56 57 58 57 55 55 55 55 56 56 57 57 56 56 56 57 57 57 57 58 60 62 63 65 66 67 68 69 69
41 39 35 32 37 43 40 32 31 38 42 40 38 40 41 43 43 41 42 45 45 47 49 52 54 56 54 51 51 54 56 56 58 58 56 54 53 53 52 51 52 53 54 55 56 56 58 59 59 59 59 60 60 61 62 62 62 61 60 59 59 59 59 60 62 64 66 67 68 69 70 72 73 74
38 38 38 37 39 42 40 32 27 36 47 47 44 43 44 44 45 46 46 46 47 50 53 54 54 53 51 50 53 55 55 55 56 56 56 55 54 53 52 52 53 54 55 55 54 54 55 58 59 61 62 63 64 65 66 67 67 66 65 65 64 64 64 64 65 67 69 70 71 72 73 74 76 78
41 42 44 46 44 43 41 33 27 31 42 48 48 48 48 46 47 49 50 49 50 51 52 52 51 49 49 52 55 57 57 57 56 55 54 54 54 53 52 52 52 52 53 53 54 55 57 60 62 65 66 65 65 66 67 68 69 69 69 70 70 69 68 68 69 69 70 72 72 73 74 76 79 81
44 46 49 51 50 46 42 37 32 32 36 40 44 48 49 48 51 56 57 55 52 50 50 50 46 42 43 49 55 60 63 62 57 54 53 53 52 51 51 51 52 52 53 54 56 59 61 64 68 71 72 71 70 69 69 69 70 70 71 71 71 71 70 71 71 72 73 75 76 76 77 79 81 83
Wind_Direction
8 10 11 13 17 20 19 20 22 23 24 26 29 31 30 30 30 30 31 31 29 27 27 27 26 23 21 21 20 19 18 15 12 13 14 16 14 12 14 14 10 5 1 359 357 357 358 0 4 3 360 359 0 2 4 6 8 9 8 7 6 6 7 10 13 14 14 13 14 16 16 15 16 17
1 1 1 2 4 5 7 8 10 10 10 12 15 17 18 19 19 20 20 21 20 19 19 20 20 17 15 15 14 13 13 10 7 6 7 9 8 6 6 6 2 358 355 353 353 353 355 359 3 1 357 356 359 1 3 6 7 8 8 7 6 4 5 8 11 13 13 13 14 16 16 15 16 19
357 355 355 355 355 355 355 356 357 356 356 359 0 1 3 4 5 6 7 8 7 7 8 10 11 9 7 9 9 7 6 6 4 1 1 4 4 2 0 358 355 351 350 349 349 350 351 354 357 356 354 355 358 360 2 5 7 8 7 6 5 4 2 4 8 10 11 13 16 17 15 15 18 20
353 351 349 349 350 350 350 350 348 347 347 348 348 349 350 351 352 353 354 354 354 355 356 359 1 1 359 359 1 360 357 356 358 357 359 2 0 357 355 354 351 348 346 346 346 346 346 347 349 350 351 355 357 357 359 2 4 6 6 5 4 3 1 1 4 6 8 11 16 17 15 15 18 20
346 346 345 344 344 345 345 346 345 344 343 343 342 341 341 341 342 343 344 344 344 344 346 347 350 352 352 352 353 352 349 348 350 353 355 356 353 351 350 350 348 345 344 343 342 341 341 342 343 345 348 353 355 355 355 357 0 3 4 4 2 1 360 359 0 3 4 9 15 16 14 14 17 20
341 340 339 339 339 339 340 341 342 342 342 341 340 339 338 337 337 337 337 338 338 338 338 340 341 344 346 347 347 346 344 343 344 347 350 350 348 347 348 347 345 342 340 339 338 338 338 338 338 340 345 350 352 352 351 350 354 359 2 2 1 359 358 356 358 0 1 6 12 13 12 13 15 18
336 336 335 334 334 334 335 336 337 339 339 339 339 338 338 337 336 336 336 335 335 335 335 335 337 339 341 342 342 342 342 341 341 343 345 346 346 346 346 344 341 339 338 338 337 336 335 334 334 336 341 346 348 349 348 346 348 354 359 359 358 357 355 354 356 358 359 3 8 9 10 11 13 16
333 333 332 331 330 330 331 332 333 334 335 335 336 336 336 336 336 336 336 335 335 335 334 335 335 336 338 339 339 340 340 340 340 340 341 343 344 345 344 341 339 337 337 336 336 335 333 331 332 335 339 343 345 346 345 344 344 349 355 356 355 355 354 352 352 353 357 1 4 4 5 7 10 14
332 332 331 330 328 328 328 330 330 331 331 332 332 333 333 334 334 334 334 335 335 334 334 334 334 334 335 336 336 337 338 338 338 338 338 339 340 341 341 340 338 337 336 334 333 332 331 330 331 334 337 339 341 343 343 343 343 345 350 352 352 353 353 351 347 349 355 0 1 360 359 1 6 11
331 331 330 329 327 326 326 327 327 328 329 329 329 329 330 331 332 332 332 332 332 332 332 332 332 332 332 332 333 333 334 335 335 335 334 335 335 337 338 338 336 335 333 331 330 329 330 331 331 333 335 335 337 340 342 342 342 342 345 347 349 351 352 350 347 350 356 359 358 356 355 356 1 7
327 328 327 326 325 324 324 324 325 325 325 326 326 326 327 328 329 330 330 330 329 329 329 329 329 329 329 329 329 329 330 331 331 331 331 331 331 331 333 335 334 333 331 330 328 328 329 330 331 332 333 333 335 338 340 340 340 339 340 343 347 349 350 350 351 355 358 358 357 354 352 354 358 4
322 322 322 322 321 321 321 322 322 322 322 323 323 323 324 325 326 326 327 326 326 326 326 326 326 326 326 326 325 325 327 327 327 328 328 329 328 327 328 331 332 331 331 330 329 327 327 328 329 330 331 331 334 336 337 337 336 335 337 342 344 346 348 349 352 357 359 358 356 354 352 353 356 0
315 316 316 316 316 317 318 319 319 319 319 319 319 320 321 322 323 323 323 323 323 323 322 322 323 323 323 322 322 322 323 324 324 324 324 325 325 324 324 327 330 330 329 330 329 326 324 323 324 327 329 330 333 334 334 334 332 333 337 340 342 343 345 347 350 354 357 356 354 353 352 352 354 357
311 311 311 310 311 312 313 315 315 316 316 316 317 317 318 319 320 320 320 320 320 319 319 319 319 319 319 319 319 318 319 320 320 320 320 320 320 320 320 323 329 331 329 330 330 326 322 321 323 326 327 329 331 333 334 333 330 331 335 338 341 341 342 344 345 347 351 353 352 352 352 351 351 354
313 311 309 308 308 309 309 310 311 311 311 312 313 314 315 316 316 317 318 317 317 316 315 314 314 314 314 314 314 314 315 316 316 315 315 316 316 317 318 322 327 330 330 330 331 330 326 323 325 328 328 329 332 334 335 333 330 329 332 335 340 341 340 340 339 338 341 346 350 352 353 352 351 352
318 315 312 309 308 307 306 306 306 306 306 306 307 308 309 311 312 313 314 315 315 314 312 311 310 309 310 311 311 311 311 311 311 311 312 313 316 318 320 322 325 328 329 329 331 334 331 327 327 330 330 331 332 334 334 332 329 328 328 330 336 340 339 336 335 333 334 339 346 350 352 351 351 351
322 319 316 313 310 307 304 302 301 301 300 300 300 301 302 304 306 307 309 311 312 312 312 312 311 310 310 310 310 309 309 309 309 309 311 315 319 321 322 323 324 326 328 328 331 335 335 331 329 329 329 328 329 331 332 330 327 326 326 327 331 336 336 334 331 330 331 336 343 348 350 350 349 350
326 323 320 317 312 308 305 304 302 300 299 298 298 299 298 299 300 302 304 306 307 308 310 312 314 313 312 312 310 308 308 308 308 309 314 319 322 323 323 323 323 325 328 329 332 334 335 332 329 327 326 325 325 327 329 329 327 326 326 326 327 330 331 331 329 329 330 335 341 345 348 348 347 347
329 325 322 319 315 311 309 307 304 302 301 300 300 300 299 298 298 299 302 303 303 304 307 310 313 314 313 312 310 309 309 309 310 313 319 323 324 323 322 322 323 326 328 329 331 331 332 331 329 326 324 321 319 321 324 326 326 326 328 328 327 326 327 328 327 326 327 332 337 341 344 346 346 346
330 327 324 320 317 313 311 308 305 303 302 302 303 303 301 299 298 299 301 301 300 301 304 307 310 311 311 310 310 310 310 311 313 317 321 323 323 322 321 322 323 326 327 328 328 328 329 329 328 326 323 320 316 314 317 321 324 328 332 331 328 325 325 326 325 322 321 326 332 337 340 342 344 344
330 328 325 321 317 313 310 307 304 302 302 303 303 303 301 299 299 302 301 298 297 300 303 304 305 307 307 307 307 309 310 311 313 316 319 321 321 320 321 322 323 324 325 325 325 325 326 326 326 325 324 323 318 313 314 317 320 328 334 332 328 326 324 324 323 318 315 319 327 333 336 339 341 342
327 328 324 320 316 312 309 306 304 303 303 303 303 302 299 297 301 305 302 297 297 300 302 302 302 302 302 302 303 305 307 309 312 314 317 318 318 319 320 321 321 321 321 321 321 322 323 324 324 324 324 322 320 316 314 313 315 325 332 333 329 326 324 323 320 316 313 314 321 329 333 335 337 339
324 325 323 319 316 313 311 307 303 303 302 302 302 300 297 297 303 306 301 297 299 302 302 301 301 300 300 300 302 304 306 308 310 312 314 315 316 318 319 320 318 317 316 317 318 319 320 321 322 322 320 317 317 317 315 312 315 323 329 330 329 326 323 321 319 317 316 315 320 326 330 332 334 334
321 323 321 318 317 315 312 307 303 301 299 299 299 298 296 300 305 304 300 299 302 303 303 302 301 300 302 303 305 307 309 310 311 311 313 314 315 316 317 317 316 314 313 314 315 317 319 320 320 319 315 311 309 312 313 314 317 322 326 327 327 324 321 319 319 319 319 319 321 325 327 329 330 330
318 320 319 317 317 315 313 310 305 300 297 296 296 296 297 301 304 302 300 302 304 304 304 303 303 304 306 307 310 312 313 313 313 313 313 313 313 313 314 313 311 310 310 312 314 316 318 319 319 318 314 309 305 306 309 313 316 320 323 324 324 321 317 317 318 319 319 320 321 323 324 325 326 327
315 316 316 316 315 313 312 311 307 301 297 295 294 296 298 299 300 299 300 304 306 305 303 303 305 307 308 310 312 313 314 315 315 314 313 311 311 310 309 308 307 307 309 311 313 315 317 317 317 316 314 311 307 307 309 313 315 317 320 322 321 318 314 314 317 318 319 320 321 322 322 322 324 326
312 314 313 313 313 312 311 310 307 302 298 295 294 296 297 297 297 298 300 304 305 303 302 303 305 306 308 310 311 311 313 314 313 312 311 310 310 309 306 305 305 307 309 311 313 314 315 314 313 313 312 311 310 310 310 312 314 316 319 320 319 315 313 314 317 318 319 320 321 321 322 323 325 326
310 310 310 310 311 311 311 309 306 302 298 295 295 296 296 296 296 297 299 301 301 300 301 303 305 307 309 310 310 311 312 311 310 310 311 310 309 308 307 306 306 306 308 310 312 313 312 311 310 311 311 311 311 310 309 311 313 316 319 319 317 314 313 314 316 318 319 320 321 322 323 324 325 325
307 307 306 307 308 309 309 308 305 301 298 296 295 295 295 295 295 295 297 297 297 298 300 303 305 308 309 310 312 313 312 310 310 311 311 310 311 311 310 307 306 306 309 310 311 311 311 310 309 309 311 312 311 310 310 312 314 316 318 318 316 313 312 314 315 317 319 320 321 323 324 325 326 326
305 303 302 303 304 306 306 304 302 300 299 297 294 294 294 293 293 293 294 293 292 294 297 300 305 309 312 315 317 317 315 312 312 312 312 313 315 315 312 308 305 305 308 311 311 312 312 310 308 308 309 309 309 309 311 312 314 316 317 317 315 314 313 314 315 316 317 319 321 323 325 326 328 329
303 300 298 299 300 301 301 299 298 299 299 297 295 293 292 292 292 291 289 287 287 291 295 301 311 318 320 318 317 315 313 310 310 310 311 312 313 314 312 309 305 304 306 310 314 315 314 311 308 307 307 306 306 307 308 311 313 315 315 314 314 313 312 312 313 313 314 317 320 322 325 328 330 331
301 297 294 294 296 297 297 295 295 297 298 297 296 294 293 292 290 288 286 288 292 297 301 306 312 318 320 318 315 312 309 307 306 307 307 307 307 308 309 309 308 307 308 311 315 318 316 312 309 307 306 305 305 305 308 311 313 313 312 311 312 311 310 310 310 310 312 314 317 320 323 327 330 331
297 293 290 291 292 293 292 292 293 296 298 297 296 297 296 293 290 288 290 294 298 302 304 305 307 312 315 316 314 311 309 306 304 304 304 305 305 303 303 305 307 307 308 309 312 315 316 312 309 308 307 305 304 305 307 310 310 308 307 307 307 307 307 308 309 310 312 313 314 316 319 322 325 327
293 289 287 288 289 288 288 290 291 294 296 296 296 297 294 291 291 293 294 296 300 303 302 302 302 306 310 311 312 311 308 305 304 303 303 303 304 302 301 301 301 302 304 306 309 312 313 310 308 308 307 305 304 305 306 307 306 304 303 303 304 305 305 307 309 310 311 311 313 314 316 318 319 321
292 289 287 287 288 287 286 286 288 294 298 297 294 291 288 288 292 295 297 301 305 305 302 302 303 304 305 306 308 309 308 306 306 305 302 301 301 301 301 301 300 300 302 304 307 310 310 308 307 307 306 305 305 305 305 305 303 302 302 303 304 305 306 308 309 309 309 309 311 313 315 316 316 317
294 293 290 288 289 288 285 285 289 294 295 292 288 286 286 289 294 298 302 305 305 303 302 303 303 303 304 306 309 309 310 312 312 310 307 303 301 300 301 302 302 301 303 305 307 308 308 307 307 308 307 307 308 307 306 305 303 302 302 303 305 307 307 307 307 306 306 307 309 311 313 315 315 314
296 296 292 289 290 290 286 286 289 290 288 289 289 287 285 288 292 299 305 305 302 301 302 301 301 301 303 307 310 313 314 316 315 313 311 308 306 305 306 306 306 305 305 305 306 307 307 307 309 310 311 312 312 311 310 308 305 303 303 304 306 307 307 307 305 304 303 305 307 310 312 313 313 313
297 296 291 290 293 292 286 284 284 282 284 289 290 285 284 288 293 299 302 301 299 300 300 299 300 304 304 304 307 311 313 313 313 312 312 311 311 311 311 310 309 308 306 305 306 306 307 308 310 312 313 314 314 313 311 309 307 305 305 305 306 307 306 305 303 301 302 305 307 310 311 312 312 311
296 293 288 290 293 288 283 283 283 281 281 282 282 282 285 289 293 294 294 294 295 298 298 297 300 304 302 301 304 308 309 309 309 309 310 310 311 312 312 311 310 308 306 306 307 307 308 310 312 313 314 314 313 312 311 310 309 307 306 306 306 306 305 304 302 301 302 305 307 310 312 313 313 312
294 289 284 287 289 284 281 283 284 283 280 278 278 281 285 286 287 288 288 290 294 296 295 294 297 301 302 303 306 309 309 308 306 306 306 307 307 309 310 310 308 306 305 306 308 310 312 314 314 314 313 313 313 313 312 312 312 311 310 309 308 307 305 304 303 303 304 306 308 309 311 313 313 313
290 284 280 281 280 278 278 279 281 284 283 278 278 283 284 282 282 283 286 290 293 292 289 290 295 301 304 307 309 309 306 304 302 302 303 304 304 305 306 306 304 304 304 307 310 312 314 315 314 313 312 312 312 312 312 313 313 312 311 311 309 308 307 305 305 305 306 307 309 310 311 313 313 314
282 278 276 277 275 274 274 274 278 284 283 279 283 288 284 278 277 281 286 288 287 285 285 289 296 302 305 308 309 307 303 300 298 297 298 300 301 302 303 302 302 303 304 306 308 311 314 316 315 315 314 313 313 312 312 312 311 311 310 309 308 307 306 306 306 306 307 308 310 311 312 313 314 314
278 276 277 278 276 274 273 268 268 277 281 282 285 286 282 278 279 282 284 284 283 283 287 292 299 303 304 305 307 304 300 297 296 296 296 296 297 299 300 300 301 301 302 303 305 309 313 316 317 316 316 316 316 315 314 313 312 311 310 309 308 308 308 308 308 309 309 310 310 312 312 313 313 314
282 282 282 279 275 274 271 263 255 263 274 281 285 286 287 285 281 278 279 282 284 287 291 295 301 304 305 307 307 302 298 296 296 296 295 294 295 297 298 298 299 300 300 300 301 304 308 312 315 316 316 316 316 317 317 315 314 312 310 309 308 308 309 309 309 309 309 309 310 311 312 313 314 315
285 286 286 283 276 271 266 260 251 249 256 267 276 282 284 281 274 272 275 279 282 284 288 294 297 299 300 301 298 294 292 293 293 293 293 293 294 297 298 298 298 299 298 298 300 302 305 309 312 314 315 314 314 314 315 316 315 313 311 309 307 307 307 307 307 308 308 309 310 311 312 312 314 315
Height
11017 11016 11015 11014 11014 11013 11012 11011 11010 11009 11008 11008 11007 11006 11005 11004 11003 11003 11002 11001 11000 10999 10998 10997 10996 10995 10994 10993 10992 10991 10990 10988 10987 10986 10985 10983 10982 10980 10979 10978 10977 10976 10975 10973 10972 10970 10968 10966 10964 10962 10960 10959 10956 10954 10951 10949 10947 10944 10940 10937 10934 10932 10929 10926 10924 10921 10917 10914 10910 10907 10904 10900 10896 10892
11017 11016 11015 11015 11014 11013 11012 11011 11010 11010 11009 11008 11007 11007 11006 11005 11004 11003 11002 11001 11000 10999 10998 10997 10996 10995 10995 10994 10993 10992 10991 10989 10988 10987 10985 10984 10982 10981 10979 10978 10977 10976 10975 10973 10971 10969 10968 10966 10964 10962 10961 10959 10956 10954 10951 10949 10947 10944 10941 10938 10935 10932 10929 10926 10924 10921 10918 10915 10912 10908 10905 10902 10897 10893
11017 11016 11015 11014 11014 11013 11012 11011 11011 11010 11009 11008 11008 11007 11006 11005 11004 11003 11002 11001 11000 10999 10999 10998 10997 10996 10995 10994 10993 10992 10991 10990 10989 10987 10986 10984 10982 10981 10980 10979 10977 10976 10974 10973 10971 10969 10967 10965 10963 10962 10960 10958 10956 10953 10951 10949 10947 10944 10941 10938 10935 10932 10929 10926 10924 10921 10918 10915 10912 10909 10906 10903 10899 10894
11018 11016 11015 11014 11013 11013 11012 11011 11010 11010 11009 11008 11007 11006 11005 11005 11004 11003 11001 11000 11000 10999 10998 10998 10997 10996 10995 10994 10994 10992 10991 10990 10989 10988 10986 10984 10983 10982 10980 10979 10977 10976 10974 10972 10970 10968 10966 10965 10963 10962 10960 10958 10956 10953 10951 10949 10947 10944 10942 10939 10936 10932 10930 10927 10924 10921 10918 10915 10912 10909 10907 10904 10900 10896
11017 11016 11015 11014 11013 11012 11011 11011 11010 11009 11009 11008 11007 11006 11005 11004 11003 11002 11001 11000 10999 10998 10997 10997 10997 10997 10996 10995 10994 10993 10991 10990 10989 10988 10986 10985 10984 10983 10981 10979 10977 10975 10973 10971 10969 10968 10966 10964 10962 10961 10959 10957 10955 10953 10951 10949 10946 10944 10941 10939 10936 10933 10930 10927 10924 10921 10918 10914 10911 10909 10908 10905 10901 10897
11017 11016 11015 11014 11013 11012 11011 11010 11010 11009 11008 11007 11006 11005 11004 11003 11002 11001 11000 10999 10998 10997 10996 10996 10996 10996 10995 10995 10994 10993 10991 10990 10988 10987 10986 10986 10985 10983 10981 10979 10976 10974 10972 10971 10969 10967 10965 10963 10961 10960 10958 10956 10954 10952 10950 10948 10946 10943 10941 10938 10936 10933 10930 10928 10924 10921 10918 10914 10911 10910 10908 10905 10902 10898
11016 11015 11014 11013 11012 11011 11010 11009 11008 11008 11007 11006 11005 11004 11003 11002 11001 11000 10999 10998 10997 10996 10995 10994 10994 10993 10993 10993 10993 10992 10990 10989 10987 10986 10986 10985 10984 10982 10981 10979 10977 10974 10972 10970 10968 10966 10963 10962 10960 10958 10957 10955 10953 10951 10949 10947 10945 10943 10940 10938 10935 10933 10930 10927 10925 10922 10919 10915 10912 10910 10908 10906 10903 10899
11016 11015 11014 11012 11011 11010 11009 11008 11007 11006 11005 11005 11004 11003 11002 11001 11000 10999 10998 10998 10997 10996 10994 10993 10992 10991 10991 10991 10990 10990 10989 10988 10986 10985 10984 10984 10983 10982 10980 10978 10976 10973 10970 10968 10966 10964 10962 10960 10958 10957 10955 10953 10951 10950 10948 10946 10944 10942 10939 10937 10935 10932 10929 10927 10924 10922 10919 10915 10912 10910 10908 10906 10904 10900
11015 11014 11013 11012 11010 11009 11008 11007 11006 11005 11004 11003 11002 11002 11001 11000 10999 10998 10998 10997 10996 10995 10994 10992 10991 10990 10989 10989 10988 10987 10987 10986 10985 10984 10982 10982 10981 10981 10979 10977 10974 10971 10969 10966 10964 10963 10961 10959 10957 10955 10953 10952 10950 10949 10947 10945 10943 10941 10938 10936 10934 10932 10929 10926 10924 10922 10919 10916 10913 10911 10909 10906 10904 10901
11013 11012 11012 11010 11009 11008 11006 11005 11004 11004 11003 11002 11001 11000 10999 10998 10998 10997 10996 10996 10995 10994 10993 10992 10990 10989 10988 10987 10986 10985 10985 10984 10983 10982 10981 10979 10979 10978 10977 10976 10973 10970 10968 10965 10963 10961 10959 10957 10955 10953 10952 10950 10949 10947 10946 10944 10942 10940 10938 10936 10934 10931 10928 10926 10923 10921 10919 10916 10914 10911 10909 10907 10904 10901
11012 11011 11010 11009 11008 11007 11005 11004 11003 11002 11001 11000 10999 10998 10997 10997 10996 10996 10995 10994 10993 10992 10992 10990 10989 10988 10986 10985 10984 10983 10982 10982 10981 10980 10979 10977 10976 10975 10974 10973 10971 10969 10966 10964 10961 10959 10957 10955 10953 10952 10950 10949 10947 10945 10944 10943 10941 10939 10938 10935 10933 10930 10928 10925 10923 10920 10918 10916 10914 10912 10909 10907 10904 10901
11010 11009 11008 11007 11006 11005 11004 11002 11001 11000 10999 10998 10997 10996 10995 10995 10994 10993 10993 10992 10991 10990 10989 10988 10987 10986 10985 10983 10982 10981 10980 10979 10978 10977 10976 10974 10972 10971 10970 10970 10969 10967 10964 10962 10960 10957 10955 10953 10951 10950 10949 10946 10945 10943 10942 10942 10940 10939 10937 10934 10932 10930 10927 10925 10922 10920 10918 10916 10914 10911 10909 10906 10903 10901
11008 11007 11006 11005 11004 11003 11002 11000 10999 10998 10997 10996 10994 10994 10993 10992 10992 10991 10990 10989 10988 10987 10986 10986 10985 10984 10982 10981 10979 10977 10977 10976 10975 10974 10973 10971 10970 10967 10966 10965 10965 10964 10962 10960 10958 10956 10953 10951 10950 10949 10947 10945 10943 10942 10941 10941 10939 10938 10936 10933 10931 10929 10927 10924 10922 10920 10918 10916 10913 10911 10908 10905 10903 10900
11007 11006 11004 11003 11002 11000 10999 10998 10997 10996 10994 10993 10992 10991 10990 10989 10988 10988 10987 10986 10986 10984 10983 10982 10981 10981 10979 10978 10976 10975 10973 10973 10972 10971 10969 10968 10967 10965 10963 10962 10962 10962 10960 10958 10957 10954 10952 10950 10948 10947 10945 10943 10942 10941 10940 10940 10938 10936 10934 10932 10930 10928 10925 10923 10921 10919 10917 10915 10913 10910 10907 10904 10902 10899
11005 11004 11003 11001 11000 10998 10997 10995 10994 10993 10992 10991 10989 10988 10987 10986 10985 10984 10984 10983 10982 10981 10980 10979 10978 10977 10976 10975 10974 10972 10971 10969 10968 10967 10965 10964 10963 10962 10960 10959 10958 10958 10957 10956 10955 10953 10951 10949 10947 10946 10944 10942 10940 10939 10939 10938 10937 10935 10933 10931 10928 10926 10924 10922 10920 10918 10917 10914 10912 10909 10906 10903 10900 10897
11003 11002 11001 10999 10998 10996 10994 10993 10991 10990 10989 10988 10987 10985 10984 10982 10981 10981 10980 10979 10978 10977 10976 10975 10974 10973 10973 10972 10970 10969 10967 10966 10964 10963 10961 10961 10960 10959 10958 10957 10955 10955 10954 10953 10952 10952 10950 10948 10946 10945 10943 10940 10938 10938 10938 10937 10935 10933 10931 10929 10927 10925 10922 10920 10918 10917 10915 10913 10911 10908 10905 10902 10899 10896
11001 11000 10999 10997 10996 10994 10992 10990 10989 10987 10985 10984 10983 10983 10981 10980 10978 10977 10977 10976 10975 10973 10972 10972 10971 10970 10969 10968 10966 10965 10963 10962 10960 10959 10958 10958 10957 10956 10955 10954 10953 10952 10951 10950 10950 10950 10949 10947 10945 10944 10942 10939 10937 10937 10936 10935 10933 10931 10928 10926 10924 10922 10920 10918 10916 10914 10913 10911 10909 10907 10904 10901 10898 10895
10999 10998 10996 10995 10993 10992 10990 10988 10986 10984 10982 10981 10980 10979 10978 10977 10975 10974 10973 10972 10971 10970 10970 10969 10968 10967 10965 10965 10963 10961 10959 10958 10957 10956 10956 10956 10955 10954 10952 10951 10950 10950 10949 10948 10947 10947 10946 10945 10944 10942 10941 10938 10936 10935 10934 10933 10930 10928 10926 10923 10922 10920 10918 10915 10913 10911 10910 10908 10907 10906 10903 10900 10897 10894
10998 10996 10995 10993 10991 10989 10987 10986 10984 10982 10980 10978 10977 10976 10975 10973 10972 10971 10970 10969 10967 10967 10967 10967 10966 10965 10963 10961 10960 10958 10956 10955 10954 10954 10954 10954 10953 10951 10950 10948 10948 10947 10946 10945 10944 10944 10944 10943 10941 10940 10939 10937 10934 10933 10931 10930 10928 10926 10924 10921 10919 10917 10915 10912 10910 10908 10907 10905 10904 10903 10901 10899 10896 10893
10996 10994 10993 10991 10989 10987 10985 10983 10981 10979 10977 10975 10973 10972 10971 10970 10969 10968 10967 10965 10964 10963 10964 10963 10963 10962 10960 10959 10957 10956 10954 10953 10953 10953 10953 10952 10951 10949 10948 10946 10945 10944 10944 10942 10941 10940 10940 10939 10938 10937 10936 10934 10931 10930 10928 10927 10925 10924 10922 10919 10916 10914 10912 10909 10907 10905 10904 10902 10901 10900 10898 10897 10895 10892
10994 10992 10990 10988 10986 10984 10982 10980 10978 10976 10974 10972 10970 10969 10968 10967 10966 10966 10965 10963 10961 10960 10961 10960 10959 10959 10957 10955 10954 10954 10952 10951 10951 10951 10951 10950 10949 10947 10946 10945 10943 10942 10940 10939 10938 10937 10936 10936 10934 10932 10931 10929 10927 10926 10925 10924 10922 10921 10919 10916 10914 10911 10909 10907 10905 10903 10901 10899 10898 10896 10895 10894 10892 10890
10992 10991 10988 10986 10983 10981 10979 10977 10975 10973 10971 10970 10968 10967 10965 10963 10963 10963 10963 10961 10959 10958 10958 10957 10956 10955 10954 10952 10951 10951 10950 10950 10949 10949 10948 10948 10946 10945 10944 10942 10941 10939 10937 10936 10934 10933 10932 10931 10930 10929 10927 10924 10923 10922 10922 10921 10920 10919 10916 10914 10912 10909 10907 10905 10903 10900 10898 10897 10895 10893 10891 10890 10889 10887
10990 10988 10986 10984 10981 10979 10977 10975 10972 10970 10968 10966 10965 10964 10962 10960 10961 10961 10960 10958 10957 10956 10955 10954 10953 10951 10950 10950 10949 10948 10948 10948 10947 10946 10946 10945 10943 10942 10941 10940 10938 10936 10934 10933 10932 10931 10929 10927 10926 10925 10923 10921 10920 10919 10919 10918 10917 10916 10914 10912 10910 10908 10906 10904 10901 10899 10897 10895 10893 10891 10888 10886 10885 10884
10988 10986 10984 10982 10979 10976 10974 10971 10969 10966 10964 10962 10961 10960 10958 10957 10958 10958 10957 10956 10955 10954 10952 10951 10950 10948 10947 10947 10946 10946 10946 10945 10944 10943 10942 10941 10940 10939 10938 10936 10934 10932 10930 10930 10929 10927 10926 10924 10922 10920 10919 10918 10917 10916 10915 10914 10913 10912 10910 10908 10906 10905 10904 10902 10900 10898 10895 10893 10891 10889 10886 10884 10881 10879
10986 10984 10982 10979 10976 10973 10970 10968 10965 10962 10960 10958 10956 10955 10954 10954 10955 10954 10953 10953 10952 10951 10949 10948 10946 10945 10944 10943 10942 10942 10942 10941 10940 10939 10938 10937 10936 10935 10934 10932 10930 10927 10926 10925 10924 10923 10922 10920 10918 10915 10914 10913 10913 10912 10911 10911 10909 10907 10905 10903 10902 10901 10900 10899 10898 10896 10893 10891 10889 10886 10884 10881 10879 10876
10982 10981 10980 10977 10974 10970 10967 10964 10961 10958 10956 10954 10952 10951 10951 10951 10951 10951 10950 10950 10949 10947 10945 10943 10942 10940 10939 10939 10938 10938 10937 10937 10935 10934 10933 10932 10931 10930 10929 10927 10925 10923 10922 10921 10920 10918 10917 10916 10914 10912 10910 10909 10908 10907 10906 10906 10905 10904 10902 10900 10898 10897 10896 10894 10893 10892 10890 10887 10885 10883 10881 10878 10876 10873
10979 10978 10977 10974 10971 10967 10964 10960 10957 10954 10952 10949 10947 10947 10948 10948 10947 10947 10946 10946 10945 10943 10941 10939 10938 10937 10936 10935 10934 10933 10932 10932 10930 10929 10929 10928 10927 10926 10924 10922 10920 10919 10917 10916 10915 10914 10913 10912 10911 10909 10908 10906 10904 10903 10901 10900 10899 10899 10898 10896 10894 10892 10891 10890 10888 10886 10885 10883 10881 10879 10877 10874 10872 10869
10975 10975 10973 10971 10968 10964 10961 10957 10953 10950 10947 10945 10944 10944 10944 10944 10943 10942 10942 10941 10940 10938 10936 10935 10934 10934 10933 10932 10931 10930 10928 10927 10926 10925 10925 10924 10923 10922 10920 10918 10916 10915 10913 10912 10911 10910 10909 10908 10907 10905 10904 10902 10901 10899 10897 10895 10894 10893 10892 10891 10889 10888 10886 10885 10883 10881 10879 10878 10876 10874 10872 10870 10867 10864
10973 10971 10969 10967 10965 10961 10957 10954 10950 10946 10943 10941 10940 10940 10940 10940 10939 10938 10937 10936 10934 10933 10932 10932 10931 10930 10930 10929 10928 10927 10925 10924 10923 10922 10921 10920 10919 10918 10916 10914 10912 10911 10909 10908 10907 10906 10905 10904 10902 10901 10899 10898 10896 10895 10893 10891 10889 10888 10887 10886 10885 10883 10882 10880 10879 10877 10874 10872 10870 10868 10866 10864 10862 10859
10970 10968 10966 10964 10961 10957 10954 10950 10946 10943 10940 10937 10936 10935 10935 10935 10935 10934 10932 10931 10929 10929 10928 10928 10927 10927 10927 10926 10925 10924 10923 10921 10920 10919 10918 10917 10916 10914 10912 10910 10908 10907 10906 10904 10903 10902 10901 10899 10898 10896 10894 10893 10891 10890 10889 10887 10885 10883 10882 10881 10880 10879 10878 10876 10875 10873 10870 10867 10865 10862 10860 10858 10856 10854
10966 10964 10961 10960 10957 10954 10950 10946 10942 10939 10935 10933 10931 10930 10931 10931 10931 10930 10928 10926 10925 10925 10924 10924 10924 10924 10924 10923 10922 10922 10920 10919 10918 10916 10915 10914 10912 10911 10909 10906 10904 10903 10902 10901 10900 10899 10897 10895 10893 10891 10890 10889 10887 10886 10884 10883 10881 10879 10877 10876 10875 10875 10874 10873 10871 10869 10867 10865 10862 10859 10856 10854 10852 10849
10963 10959 10957 10955 10953 10949 10945 10942 10938 10934 10931 10928 10927 10926 10926 10928 10928 10926 10923 10921 10921 10921 10921 10921 10920 10920 10920 10919 10918 10917 10916 10915 10914 10912 10911 10910 10908 10907 10906 10903 10900 10899 10899 10898 10897 10895 10894 10891 10889 10887 10886 10885 10883 10881 10880 10878 10876 10875 10874 10872 10871 10870 10869 10868 10867 10866 10864 10862 10860 10856 10853 10851 10849 10847
10959 10955 10952 10950 10949 10945 10941 10936 10933 10929 10927 10924 10922 10921 10923 10924 10923 10921 10919 10918 10918 10918 10918 10917 10916 10916 10915 10914 10913 10912 10911 10910 10909 10908 10906 10905 10904 10903 10902 10900 10897 10895 10894 10894 10892 10891 10890 10888 10885 10884 10882 10881 10879 10877 10876 10875 10873 10872 10871 10870 10868 10866 10865 10863 10862 10861 10859 10857 10856 10853 10850 10848 10846 10844
10955 10950 10947 10946 10944 10941 10936 10932 10928 10925 10923 10920 10917 10917 10917 10918 10918 10917 10914 10913 10913 10913 10912 10911 10911 10912 10910 10908 10907 10906 10905 10905 10904 10903 10901 10900 10899 10899 10898 10897 10894 10892 10890 10889 10888 10887 10886 10884 10882 10880 10879 10877 10875 10874 10873 10872 10871 10869 10868 10866 10865 10863 10861 10859 10857 10855 10853 10851 10850 10848 10846 10844 10841 10839
10949 10944 10942 10940 10939 10936 10932 10928 10924 10922 10920 10916 10912 10910 10910 10910 10911 10910 10908 10907 10907 10907 10906 10906 10906 10906 10905 10903 10901 10901 10900 10899 10898 10898 10897 10896 10894 10894 10893 10893 10891 10888 10886 10885 10884 10883 10882 10880 10878 10876 10875 10873 10872 10870 10869 10869 10868 10866 10864 10862 10860 10858 10856 10854 10852 10850 10848 10846 10844 10842 10841 10838 10836 10835
10942 10938 10936 10934 10933 10931 10928 10924 10922 10921 10917 10911 10907 10904 10903 10903 10903 10903 10903 10904 10904 10903 10902 10902 10902 10901 10899 10897 10897 10896 10895 10894 10893 10892 10891 10890 10889 10888 10888 10888 10887 10885 10883 10881 10880 10879 10878 10876 10874 10873 10871 10870 10868 10866 10865 10864 10863 10861 10859 10858 10856 10854 10851 10849 10847 10845 10843 10840 10838 10837 10835 10833 10831 10829
10936 10932 10930 10928 10928 10926 10924 10923 10921 10918 10913 10908 10904 10901 10899 10898 10898 10899 10900 10900 10899 10899 10900 10899 10897 10896 10894 10893 10892 10892 10893 10893 10891 10888 10886 10885 10884 10883 10882 10882 10881 10880 10878 10877 10876 10875 10873 10872 10870 10869 10867 10866 10864 10862 10860 10859 10858 10856 10854 10852 10850 10848 10846 10843 10841 10839 10837 10834 10832 10831 10829 10828 10825 10823
10931 10927 10924 10924 10923 10922 10921 10921 10919 10914 10909 10905 10902 10899 10896 10896 10896 10896 10896 10896 10896 10896 10896 10895 10893 10892 10890 10889 10889 10890 10892 10892 10889 10885 10882 10880 10879 10877 10877 10876 10875 10874 10873 10872 10872 10871 10869 10868 10866 10864 10863 10861 10859 10857 10855 10853 10852 10850 10847 10845 10843 10841 10838 10836 10834 10832 10830 10828 10826 10824 10823 10821 10819 10817
10925 10921 10919 10920 10919 10918 10917 10917 10915 10909 10905 10903 10901 10898 10896 10895 10895 10893 10892 10892 10891 10891 10891 10890 10889 10888 10886 10885 10884 10885 10885 10885 10882 10879 10877 10876 10875 10873 10872 10871 10870 10869 10869 10868 10867 10865 10864 10863 10861 10859 10857 10855 10854 10851 10849 10846 10844 10842 10840 10838 10835 10833 10831 10829 10827 10825 10823 10822 10820 10818 10816 10814 10812 10810
10918 10915 10914 10916 10915 10913 10912 10912 10909 10905 10901 10900 10899 10897 10895 10892 10891 10891 10888 10887 10887 10886 10885 10885 10885 10884 10882 10880 10878 10876 10875 10873 10872 10872 10871 10870 10870 10869 10868 10867 10865 10864 10863 10862 10860 10859 10858 10857 10855 10853 10851 10849 10847 10845 10843 10840 10838 10836 10833 10830 10828 10826 10824 10821 10819 10818 10816 10814 10812 10810 10808 10806 10805 10803
10911 10909 10910 10912 10910 10907 10906 10906 10904 10900 10897 10896 10896 10894 10892 10890 10888 10886 10885 10884 10883 10882 10881 10880 10880 10879 10877 10875 10874 10872 10869 10867 10866 10865 10865 10864 10863 10863 10862 10861 10860 10858 10856 10855 10853 10852 10850 10849 10848 10846 10845 10843 10841 10839 10837 10834 10832 10829 10827 10824 10822 10820 10817 10815 10812 10810 10808 10806 10804 10802 10799 10797 10795 10793
10905 10905 10906 10907 10904 10900 10899 10902 10902 10896 10891 10891 10893 10891 10887 10885 10883 10882 10881 10880 10878 10877 10876 10875 10874 10873 10871 10869 10868 10867 10865 10864 10863 10861 10860 10858 10857 10856 10855 10854 10853 10851 10850 10848 10847 10846 10845 10843 10842 10841 10839 10837 10836 10834 10831 10829 10826 10824 10821 10818 10816 10814 10812 10809 10805 10802 10799 10797 10795 10793 10791 10788 10785 10782
10899 10900 10901 10900 10898 10894 10893 10898 10901 10894 10885 10885 10887 10884 10879 10879 10878 10877 10875 10874 10873 10871 10870 10869 10870 10869 10867 10865 10863 10861 10859 10859 10858 10856 10855 10853 10852 10850 10849 10847 10846 10845 10844 10842 10841 10841 10839 10838 10836 10834 10833 10831 10830 10828 10825 10823 10820 10817 10814 10811 10809 10807 10805 10802 10799 10795 10791 10788 10786 10784 10782 10778 10775 10772
10893 10894 10895 10893 10891 10889 10888 10892 10899 10897 10889 10884 10880 10876 10874 10874 10873 10870 10868 10867 10867 10866 10865 10864 10864 10864 10863 10860 10857 10855 10853 10853 10853 10851 10849 10847 10845 10844 10843 10841 10840 10838 10837 10835 10834 10833 10832 10831 10829 10827 10826 10824 10823 10821 10818 10815 10812 10809 10807 10804 10801 10799 10797 10795 10792 10789 10785 10780 10778 10776 10773 10769 10765 10762
10887 10887 10886 10884 10883 10882 10882 10886 10892 10897 10897 10893 10886 10880 10876 10873 10868 10862 10861 10861 10862 10861 10860 10861 10862 10865 10866 10864 10858 10852 10850 10849 10848 10846 10843 10840 10839 10838 10836 10835 10834 10832 10830 10828 10827 10826 10824 10823 10821 10819 10818 10816 10815 10812 10810 10807 10804 10801 10798 10795 10793 10791 10789 10786 10783 10781 10777 10772 10769 10768 10765 10760 10755 10751